| time (UTC) | temp F | wind direction | speed MPH | gust MPH | rain 1hr in | rain 24hr in | rain mn in | humidity % | barometer mb |
| 20260510220357 | 70 | 4 | 0.0 | 1.0 | 0.00 | 0.00 | 0.00 | 27 | 1021.5 |
| 20260510215854 | 70 | 35 | 1.0 | 1.0 | 0.00 | 0.00 | 0.00 | 25 | 1021.4 |
| 20260510215351 | 69 | 6 | 1.0 | 1.0 | 0.00 | 0.00 | 0.00 | 26 | 1021.5 |
| 20260510214848 | 69 | 288 | 1.0 | 2.0 | 0.00 | 0.00 | 0.00 | 27 | 1021.4 |
| 20260510214346 | 70 | 334 | 4.0 | 6.0 | 0.00 | 0.00 | 0.00 | 25 | 1021.3 |
| 20260510213843 | 70 | 336 | 2.0 | 3.0 | 0.00 | 0.00 | 0.00 | 25 | 1021.3 |
| 20260510213339 | 71 | 32 | 0.0 | 1.0 | 0.00 | 0.00 | 0.00 | 26 | 1021.4 |
| 20260510212835 | 70 | 25 | 1.0 | 1.0 | 0.00 | 0.00 | 0.00 | 27 | 1021.4 |
| 20260510212333 | 70 | 346 | 1.0 | 1.0 | 0.00 | 0.00 | 0.00 | 26 | 1021.4 |
| 20260510211829 | 69 | 106 | 2.0 | 3.0 | 0.00 | 0.00 | 0.00 | 25 | 1021.2 |
| 20260510211325 | 69 | 141 | 1.0 | 1.0 | 0.00 | 0.00 | 0.00 | 26 | 1021.4 |
| 20260510210821 | 69 | 313 | 2.0 | 3.0 | 0.00 | 0.00 | 0.00 | 25 | 1021.5 |
| 20260510210316 | 69 | 52 | 3.0 | 3.0 | 0.00 | 0.00 | 0.00 | 27 | 1021.4 |
| 20260510205815 | 69 | 336 | 2.0 | 2.0 | 0.00 | 0.00 | 0.00 | 27 | 1021.4 |
| 20260510205311 | 69 | 323 | 2.0 | 2.0 | 0.00 | 0.00 | 0.00 | 28 | 1021.4 |
| 20260510204807 | 70 | 35 | 1.0 | 2.0 | 0.00 | 0.00 | 0.00 | 27 | 1021.6 |
| 20260510204304 | 69 | 60 | 2.0 | 2.0 | 0.00 | 0.00 | 0.00 | 29 | 1021.7 |
| 20260510203801 | 68 | 342 | 2.0 | 3.0 | 0.00 | 0.00 | 0.00 | 29 | 1021.6 |
| 20260510203259 | 68 | 111 | 2.0 | 3.0 | 0.00 | 0.00 | 0.00 | 29 | 1021.8 |
| 20260510202758 | 68 | 9 | 1.0 | 1.0 | 0.00 | 0.00 | 0.00 | 27 | 1021.7 |
| 20260510202254 | 68 | 338 | 0.0 | 0.0 | 0.00 | 0.00 | 0.00 | 27 | 1021.9 |
| 20260510201751 | 68 | 47 | 1.0 | 2.0 | 0.00 | 0.00 | 0.00 | 28 | 1021.9 |
| 20260510201248 | 68 | 349 | 0.0 | 1.0 | 0.00 | 0.00 | 0.00 | 26 | 1021.8 |
| 20260510200744 | 68 | 341 | 0.0 | 0.0 | 0.00 | 0.00 | 0.00 | 28 | 1021.9 |
| 20260510200242 | 68 | 3 | 1.0 | 2.0 | 0.00 | 0.00 | 0.00 | 30 | 1021.8 |
| 20260510195738 | 67 | 322 | 3.0 | 6.0 | 0.00 | 0.00 | 0.00 | 29 | 1021.7 |
| 20260510195235 | 68 | 275 | 2.0 | 3.0 | 0.00 | 0.00 | 0.00 | 27 | 1022.1 |
| 20260510194734 | 67 | 354 | 0.0 | 0.0 | 0.00 | 0.00 | 0.00 | 30 | 1022.1 |
| 20260510194232 | 67 | 32 | 1.0 | 2.0 | 0.00 | 0.00 | 0.00 | 28 | 1022.1 |
| 20260510193727 | 67 | 322 | 3.0 | 4.0 | 0.00 | 0.00 | 0.00 | 26 | 1022.3 |
| 20260510193222 | 67 | 6 | 0.0 | 0.0 | 0.00 | 0.00 | 0.00 | 27 | 1022.4 |
| 20260510192718 | 67 | 299 | 1.0 | 1.0 | 0.00 | 0.00 | 0.00 | 28 | 1022.2 |
| 20260510192213 | 66 | 353 | 2.0 | 3.0 | 0.00 | 0.00 | 0.00 | 29 | 1022.3 |
| 20260510191710 | 67 | 43 | 3.0 | 4.0 | 0.00 | 0.00 | 0.00 | 29 | 1022.3 |
| 20260510191206 | 67 | 343 | 2.0 | 2.0 | 0.00 | 0.00 | 0.00 | 28 | 1022.4 |
| 20260510190704 | 67 | 341 | 1.0 | 2.0 | 0.00 | 0.00 | 0.00 | 31 | 1022.3 |
| 20260510190201 | 67 | 322 | 3.0 | 7.0 | 0.00 | 0.00 | 0.00 | 28 | 1022.3 |
| 20260510185658 | 68 | 318 | 3.0 | 6.0 | 0.00 | 0.00 | 0.00 | 28 | 1022.2 |
| 20260510185156 | 68 | 347 | 3.0 | 4.0 | 0.00 | 0.00 | 0.00 | 28 | 1022.0 |
| 20260510184652 | 67 | 14 | 0.0 | 1.0 | 0.00 | 0.00 | 0.00 | 29 | 1022.0 |
| 20260510184148 | 66 | 300 | 2.0 | 2.0 | 0.00 | 0.00 | 0.00 | 29 | 1022.1 |
| 20260510183645 | 66 | 333 | 3.0 | 3.0 | 0.00 | 0.00 | 0.00 | 29 | 1021.8 |
| 20260510183139 | 66 | 346 | 1.0 | 1.0 | 0.00 | 0.00 | 0.00 | 30 | 1022.1 |
| 20260510182636 | 66 | 279 | 1.0 | 2.0 | 0.00 | 0.00 | 0.00 | 31 | 1022.1 |
| 20260510182131 | 67 | 326 | 2.0 | 3.0 | 0.00 | 0.00 | 0.00 | 28 | 1021.9 |
| 20260510181629 | 66 | 1 | 0.0 | 0.0 | 0.00 | 0.00 | 0.00 | 29 | 1022.3 |
| 20260510181125 | 67 | 81 | 1.0 | 2.0 | 0.00 | 0.00 | 0.00 | 28 | 1022.0 |
| 20260510180621 | 67 | 53 | 1.0 | 1.0 | 0.00 | 0.00 | 0.00 | 28 | 1022.3 |
| 20260510180119 | 67 | 345 | 0.0 | 1.0 | 0.00 | 0.00 | 0.00 | 28 | 1022.4 |
| 20260510175614 | 66 | 331 | 1.0 | 1.0 | 0.00 | 0.00 | 0.00 | 26 | 1022.6 |
| 20260510175110 | 67 | 46 | 1.0 | 1.0 | 0.00 | 0.00 | 0.00 | 28 | 1022.5 |
| 20260510174608 | 67 | 269 | 2.0 | 2.0 | 0.00 | 0.00 | 0.00 | 28 | 1022.0 |
| 20260510174106 | 67 | 51 | 1.0 | 2.0 | 0.00 | 0.00 | 0.00 | 26 | 1022.2 |
| 20260510173601 | 67 | 359 | 0.0 | 0.0 | 0.00 | 0.00 | 0.00 | 25 | 1022.0 |
| 20260510173058 | 67 | 342 | 0.0 | 1.0 | 0.00 | 0.00 | 0.00 | 27 | 1022.3 |
| 20260510172553 | 67 | 314 | 2.0 | 2.0 | 0.00 | 0.00 | 0.00 | 25 | 1022.4 |
| 20260510172050 | 68 | 87 | 2.0 | 3.0 | 0.00 | 0.00 | 0.00 | 25 | 1022.1 |
| 20260510171547 | 68 | 329 | 1.0 | 1.0 | 0.00 | 0.00 | 0.00 | 27 | 1022.3 |
| 20260510171044 | 68 | 65 | 1.0 | 1.0 | 0.00 | 0.00 | 0.00 | 27 | 1022.2 |
| 20260510170540 | 68 | 84 | 2.0 | 2.0 | 0.00 | 0.00 | 0.00 | 27 | 1022.2 |
| 20260510170037 | 67 | 18 | 2.0 | 2.0 | 0.00 | 0.00 | 0.00 | 28 | 1022.3 |
| 20260510165532 | 66 | 71 | 2.0 | 2.0 | 0.00 | 0.00 | 0.00 | 28 | 1022.3 |
| 20260510165029 | 67 | 17 | 3.0 | 4.0 | 0.00 | 0.00 | 0.00 | 27 | 1022.2 |
| 20260510164526 | 66 | 56 | 1.0 | 2.0 | 0.00 | 0.00 | 0.00 | 28 | 1021.9 |
| 20260510164023 | 64 | 79 | 5.0 | 7.0 | 0.00 | 0.00 | 0.00 | 29 | 1021.9 |
| 20260510163518 | 63 | 71 | 2.0 | 2.0 | 0.00 | 0.00 | 0.00 | 30 | 1022.0 |
| 20260510163014 | 64 | 68 | 1.0 | 1.0 | 0.00 | 0.00 | 0.00 | 31 | 1022.2 |
| 20260510162510 | 65 | 290 | 3.0 | 4.0 | 0.00 | 0.00 | 0.00 | 28 | 1021.8 |
| 20260510162007 | 65 | 64 | 0.0 | 1.0 | 0.00 | 0.00 | 0.00 | 31 | 1021.9 |
| 20260510161502 | 65 | 21 | 2.0 | 2.0 | 0.00 | 0.00 | 0.00 | 31 | 1022.0 |
| 20260510161000 | 64 | 5 | 1.0 | 2.0 | 0.00 | 0.00 | 0.00 | 32 | 1021.9 |
| 20260510160457 | 63 | 302 | 2.0 | 2.0 | 0.00 | 0.00 | 0.00 | 32 | 1022.1 |
| 20260510155954 | 63 | 325 | 3.0 | 4.0 | 0.00 | 0.00 | 0.00 | 30 | 1022.0 |
| 20260510155452 | 64 | 324 | 1.0 | 1.0 | 0.00 | 0.00 | 0.00 | 31 | 1022.0 |
| 20260510154949 | 64 | 14 | 0.0 | 0.0 | 0.00 | 0.00 | 0.00 | 31 | 1021.9 |
| 20260510154445 | 63 | 38 | 1.0 | 2.0 | 0.00 | 0.00 | 0.00 | 30 | 1022.1 |
| 20260510153943 | 63 | 346 | 1.0 | 1.0 | 0.00 | 0.00 | 0.00 | 30 | 1022.0 |
| 20260510153440 | 63 | 325 | 2.0 | 2.0 | 0.00 | 0.00 | 0.00 | 30 | 1022.0 |
| 20260510152937 | 64 | 6 | 2.0 | 2.0 | 0.00 | 0.00 | 0.00 | 29 | 1021.8 |
| 20260510152435 | 64 | 6 | 1.0 | 1.0 | 0.00 | 0.00 | 0.00 | 29 | 1021.8 |
| 20260510151931 | 64 | 1 | 1.0 | 2.0 | 0.00 | 0.00 | 0.00 | 30 | 1021.6 |
| 20260510151428 | 63 | 23 | 1.0 | 2.0 | 0.00 | 0.00 | 0.00 | 31 | 1021.4 |
| 20260510150924 | 63 | 73 | 2.0 | 3.0 | 0.00 | 0.00 | 0.00 | 31 | 1021.3 |
| 20260510150420 | 63 | 65 | 2.0 | 2.0 | 0.00 | 0.00 | 0.00 | 30 | 1021.5 |
| 20260510145916 | 62 | 337 | 1.0 | 1.0 | 0.00 | 0.00 | 0.00 | 32 | 1021.5 |
| 20260510145413 | 62 | 90 | 1.0 | 2.0 | 0.00 | 0.00 | 0.00 | 31 | 1021.5 |
| 20260510144909 | 61 | 76 | 2.0 | 3.0 | 0.00 | 0.00 | 0.00 | 33 | 1021.4 |
| 20260510144406 | 60 | 353 | 0.0 | 1.0 | 0.00 | 0.00 | 0.00 | 33 | 1021.4 |
| 20260510143900 | 60 | 336 | 0.0 | 0.0 | 0.00 | 0.00 | 0.00 | 34 | 1021.6 |
| 20260510143357 | 60 | 355 | 0.0 | 0.0 | 0.00 | 0.00 | 0.00 | 34 | 1021.5 |
| 20260510142854 | 59 | 74 | 2.0 | 2.0 | 0.00 | 0.00 | 0.00 | 33 | 1021.6 |
| 20260510142350 | 59 | 19 | 1.0 | 1.0 | 0.00 | 0.00 | 0.00 | 35 | 1021.6 |
| 20260510141847 | 60 | 59 | 1.0 | 1.0 | 0.00 | 0.00 | 0.00 | 34 | 1021.9 |
| 20260510141345 | 59 | 345 | 0.0 | 0.0 | 0.00 | 0.00 | 0.00 | 34 | 1021.8 |
| 20260510140842 | 59 | 58 | 1.0 | 1.0 | 0.00 | 0.00 | 0.00 | 33 | 1021.6 |
| 20260510140338 | 60 | 292 | 2.0 | 3.0 | 0.00 | 0.00 | 0.00 | 33 | 1021.6 |
| 20260510135837 | 60 | 26 | 1.0 | 2.0 | 0.00 | 0.00 | 0.00 | 33 | 1021.6 |
| 20260510135332 | 59 | 6 | 0.0 | 0.0 | 0.00 | 0.00 | 0.00 | 35 | 1021.3 |
| 20260510134831 | 59 | 42 | 2.0 | 2.0 | 0.00 | 0.00 | 0.00 | 33 | 1021.4 |
| 20260510134327 | 59 | 8 | 1.0 | 1.0 | 0.00 | 0.00 | 0.00 | 36 | 1021.3 |
| 20260510133823 | 58 | 20 | 1.0 | 2.0 | 0.00 | 0.00 | 0.00 | 34 | 1021.4 |
| 20260510133319 | 58 | 335 | 0.0 | 1.0 | 0.00 | 0.00 | 0.00 | 36 | 1021.1 |
| 20260510132815 | 58 | 354 | 1.0 | 1.0 | 0.00 | 0.00 | 0.00 | 35 | 1021.4 |
| 20260510132314 | 58 | 27 | 0.0 | 1.0 | 0.00 | 0.00 | 0.00 | 35 | 1021.1 |
| 20260510131810 | 58 | 39 | 2.0 | 3.0 | 0.00 | 0.00 | 0.00 | 35 | 1021.2 |
| 20260510131308 | 58 | 335 | 1.0 | 1.0 | 0.00 | 0.00 | 0.00 | 35 | 1021.1 |
| 20260510130804 | 58 | 62 | 1.0 | 1.0 | 0.00 | 0.00 | 0.00 | 36 | 1021.1 |
| 20260510130301 | 58 | 280 | 1.0 | 1.0 | 0.00 | 0.00 | 0.00 | 35 | 1020.8 |
| 20260510125757 | 57 | 0 | 1.0 | 2.0 | 0.00 | 0.00 | 0.00 | 36 | 1020.9 |
| 20260510125253 | 57 | 10 | 1.0 | 1.0 | 0.00 | 0.00 | 0.00 | 36 | 1020.9 |
| 20260510124750 | 57 | 320 | 3.0 | 4.0 | 0.00 | 0.00 | 0.00 | 35 | 1020.5 |
| 20260510124248 | 57 | 348 | 0.0 | 1.0 | 0.00 | 0.00 | 0.00 | 35 | 1020.7 |
| 20260510123743 | 57 | 324 | 1.0 | 2.0 | 0.00 | 0.00 | 0.00 | 35 | 1020.4 |
| 20260510123239 | 57 | 78 | 1.0 | 2.0 | 0.00 | 0.00 | 0.00 | 35 | 1020.0 |
| 20260510122735 | 57 | 3 | 0.0 | 0.0 | 0.00 | 0.00 | 0.00 | 36 | 1020.0 |
| 20260510122232 | 57 | 10 | 2.0 | 2.0 | 0.00 | 0.00 | 0.00 | 35 | 1019.8 |
| 20260510121728 | 58 | 358 | 0.0 | 1.0 | 0.00 | 0.00 | 0.00 | 37 | 1020.1 |
| 20260510121226 | 58 | 304 | 1.0 | 1.0 | 0.00 | 0.00 | 0.00 | 36 | 1019.7 |
| 20260510120723 | 57 | 332 | 0.0 | 1.0 | 0.00 | 0.00 | 0.00 | 36 | 1019.5 |
| 20260510120219 | 57 | 4 | 0.0 | 0.0 | 0.00 | 0.00 | 0.00 | 38 | 1019.1 |
| 20260510115715 | 57 | 9 | 1.0 | 2.0 | 0.00 | 0.00 | 0.00 | 37 | 1019.2 |
| 20260510115214 | 57 | 193 | 2.0 | 3.0 | 0.00 | 0.00 | 0.00 | 37 | 1019.0 |
| 20260510114708 | 57 | 351 | 0.0 | 0.0 | 0.00 | 0.00 | 0.00 | 37 | 1019.2 |
| 20260510114206 | 57 | 354 | 0.0 | 0.0 | 0.00 | 0.00 | 0.00 | 37 | 1018.8 |
| 20260510113700 | 57 | 6 | 3.0 | 4.0 | 0.00 | 0.00 | 0.00 | 36 | 1018.9 |
| 20260510113158 | 57 | 20 | 0.0 | 1.0 | 0.00 | 0.00 | 0.00 | 36 | 1019.0 |
| 20260510112655 | 57 | 48 | 1.0 | 2.0 | 0.00 | 0.00 | 0.00 | 36 | 1018.6 |
| 20260510112152 | 58 | 2 | 1.0 | 2.0 | 0.00 | 0.00 | 0.00 | 37 | 1018.6 |
| 20260510111648 | 58 | 358 | 0.0 | 1.0 | 0.00 | 0.00 | 0.00 | 37 | 1018.3 |
| 20260510111144 | 58 | 321 | 1.0 | 1.0 | 0.00 | 0.00 | 0.00 | 37 | 1018.4 |
| 20260510110639 | 58 | 324 | 1.0 | 1.0 | 0.00 | 0.00 | 0.00 | 37 | 1018.6 |
| 20260510110137 | 58 | 11 | 1.0 | 1.0 | 0.00 | 0.00 | 0.00 | 38 | 1018.5 |
| 20260510105633 | 58 | 30 | 0.0 | 1.0 | 0.00 | 0.00 | 0.00 | 39 | 1018.6 |
| 20260510105132 | 58 | 30 | 0.0 | 1.0 | 0.00 | 0.00 | 0.00 | 39 | 1018.7 |
| 20260510104629 | 59 | 337 | 1.0 | 1.0 | 0.00 | 0.00 | 0.00 | 40 | 1018.3 |
| 20260510104126 | 59 | 34 | 0.0 | 1.0 | 0.00 | 0.00 | 0.00 | 40 | 1018.4 |
| 20260510103623 | 59 | 339 | 1.0 | 2.0 | 0.00 | 0.00 | 0.00 | 39 | 1018.3 |
| 20260510103118 | 59 | 35 | 2.0 | 2.0 | 0.00 | 0.00 | 0.00 | 37 | 1018.2 |
| 20260510102614 | 59 | 76 | 0.0 | 2.0 | 0.00 | 0.00 | 0.00 | 35 | 1018.0 |
| 20260510102110 | 60 | 45 | 1.0 | 1.0 | 0.00 | 0.00 | 0.00 | 34 | 1018.1 |
| 20260510101608 | 60 | 92 | 2.0 | 4.0 | 0.00 | 0.00 | 0.00 | 34 | 1018.0 |
| 20260510101106 | 60 | 354 | 0.0 | 0.0 | 0.00 | 0.00 | 0.00 | 35 | 1018.0 |
| 20260510100602 | 60 | 38 | 2.0 | 3.0 | 0.00 | 0.00 | 0.00 | 35 | 1017.8 |
| 20260510100100 | 60 | 15 | 0.0 | 1.0 | 0.00 | 0.00 | 0.00 | 36 | 1017.4 |
| 20260510095556 | 60 | 64 | 1.0 | 2.0 | 0.00 | 0.00 | 0.00 | 35 | 1017.3 |
| 20260510095056 | 60 | 15 | 1.0 | 2.0 | 0.00 | 0.00 | 0.00 | 37 | 1017.4 |
| 20260510094555 | 60 | 8 | 2.0 | 2.0 | 0.00 | 0.00 | 0.00 | 37 | 1017.5 |
| 20260510094051 | 60 | 56 | 1.0 | 2.0 | 0.00 | 0.00 | 0.00 | 37 | 1017.5 |
| 20260510093547 | 60 | 3 | 0.0 | 1.0 | 0.00 | 0.00 | 0.00 | 38 | 1017.6 |
| 20260510093044 | 60 | 47 | 1.0 | 1.0 | 0.00 | 0.00 | 0.00 | 39 | 1017.3 |
| 20260510092541 | 61 | 77 | 1.0 | 2.0 | 0.00 | 0.00 | 0.00 | 39 | 1017.3 |
| 20260510092041 | 61 | 16 | 3.0 | 4.0 | 0.00 | 0.00 | 0.00 | 40 | 1017.3 |
| 20260510091538 | 61 | 314 | 1.0 | 1.0 | 0.00 | 0.00 | 0.00 | 40 | 1017.2 |
| 20260510091034 | 61 | 0 | 2.0 | 3.0 | 0.00 | 0.00 | 0.00 | 39 | 1017.2 |
| 20260510090531 | 61 | 9 | 1.0 | 1.0 | 0.00 | 0.00 | 0.00 | 39 | 1017.3 |
| 20260510090027 | 61 | 30 | 0.0 | 1.0 | 0.00 | 0.00 | 0.00 | 41 | 1016.7 |
| 20260510085527 | 62 | 74 | 1.0 | 1.0 | 0.00 | 0.00 | 0.00 | 41 | 1016.9 |
| 20260510085023 | 62 | 22 | 1.0 | 2.0 | 0.00 | 0.00 | 0.00 | 41 | 1016.9 |
| 20260510084519 | 62 | 19 | 2.0 | 3.0 | 0.00 | 0.00 | 0.00 | 44 | 1016.7 |
| 20260510084016 | 62 | 39 | 0.0 | 1.0 | 0.00 | 0.00 | 0.00 | 45 | 1016.5 |
| 20260510083513 | 62 | 241 | 1.0 | 1.0 | 0.00 | 0.00 | 0.00 | 45 | 1016.4 |
| 20260510083009 | 62 | 48 | 2.0 | 3.0 | 0.00 | 0.00 | 0.00 | 47 | 1016.5 |
| 20260510082507 | 62 | 344 | 0.0 | 1.0 | 0.00 | 0.00 | 0.00 | 48 | 1016.4 |
| 20260510082006 | 62 | 26 | 1.0 | 1.0 | 0.00 | 0.00 | 0.00 | 49 | 1016.2 |
| 20260510081502 | 63 | 345 | 1.0 | 1.0 | 0.00 | 0.00 | 0.00 | 48 | 1016.2 |
| 20260510080958 | 63 | 32 | 0.0 | 1.0 | 0.00 | 0.00 | 0.00 | 49 | 1016.3 |
| 20260510080456 | 63 | 23 | 1.0 | 1.0 | 0.00 | 0.00 | 0.00 | 49 | 1016.1 |
| 20260510075954 | 63 | 358 | 0.0 | 1.0 | 0.00 | 0.00 | 0.00 | 50 | 1016.0 |
| 20260510075451 | 64 | 6 | 0.0 | 0.0 | 0.00 | 0.00 | 0.00 | 50 | 1015.5 |
| 20260510074948 | 64 | 357 | 0.0 | 0.0 | 0.00 | 0.00 | 0.00 | 49 | 1016.1 |
| 20260510074445 | 64 | 353 | 0.0 | 0.0 | 0.00 | 0.00 | 0.00 | 48 | 1016.0 |
| 20260510073941 | 64 | 349 | 1.0 | 1.0 | 0.00 | 0.00 | 0.00 | 46 | 1015.9 |
| 20260510073437 | 64 | 21 | 0.0 | 1.0 | 0.00 | 0.00 | 0.00 | 47 | 1015.9 |
| 20260510072933 | 64 | 350 | 0.0 | 0.0 | 0.00 | 0.00 | 0.00 | 46 | 1015.8 |
| 20260510072431 | 64 | 0 | 0.0 | 1.0 | 0.00 | 0.00 | 0.00 | 47 | 1015.8 |
| 20260510071926 | 63 | 29 | 1.0 | 2.0 | 0.00 | 0.00 | 0.00 | 49 | 1015.7 |
| 20260510071423 | 62 | 0 | 0.0 | 0.0 | 0.00 | 0.00 | 0.00 | 53 | 1015.6 |
| 20260510070921 | 62 | 331 | 1.0 | 1.0 | 0.00 | 0.00 | 0.00 | 53 | 1015.7 |
| 20260510070418 | 62 | 339 | 0.0 | 0.0 | 0.00 | 0.00 | 0.00 | 55 | 1015.4 |
| 20260510065913 | 62 | 339 | 0.0 | 0.0 | 0.00 | 0.00 | 0.00 | 54 | 1015.3 |
| 20260510065410 | 62 | 339 | 0.0 | 0.0 | 0.00 | 0.00 | 0.00 | 52 | 1015.4 |
| 20260510064906 | 63 | 339 | 0.0 | 0.0 | 0.00 | 0.00 | 0.00 | 51 | 1015.4 |
| 20260510064404 | 63 | 339 | 0.0 | 0.0 | 0.00 | 0.00 | 0.00 | 51 | 1015.5 |
| 20260510063900 | 64 | 339 | 0.0 | 0.0 | 0.00 | 0.00 | 0.00 | 51 | 1015.3 |
| 20260510063357 | 64 | 333 | 0.0 | 1.0 | 0.00 | 0.00 | 0.00 | 49 | 1015.2 |
| 20260510062854 | 65 | 343 | 0.0 | 1.0 | 0.00 | 0.00 | 0.00 | 48 | 1015.3 |
| 20260510062349 | 66 | 3 | 0.0 | 0.0 | 0.00 | 0.00 | 0.00 | 47 | 1014.8 |
| 20260510061844 | 66 | 59 | 1.0 | 1.0 | 0.00 | 0.00 | 0.00 | 46 | 1014.8 |
| 20260510061341 | 66 | 22 | 0.0 | 1.0 | 0.00 | 0.00 | 0.00 | 46 | 1014.9 |
| 20260510060837 | 67 | 312 | 0.0 | 1.0 | 0.00 | 0.00 | 0.00 | 45 | 1015.1 |
| 20260510060335 | 67 | 21 | 0.0 | 1.0 | 0.00 | 0.00 | 0.00 | 44 | 1015.1 |
| 20260510055832 | 67 | 39 | 0.0 | 0.0 | 0.00 | 0.00 | 0.00 | 44 | 1015.0 |
| 20260510055331 | 67 | 36 | 1.0 | 1.0 | 0.00 | 0.00 | 0.00 | 44 | 1014.9 |
| 20260510054830 | 67 | 1 | 0.0 | 0.0 | 0.00 | 0.00 | 0.00 | 43 | 1014.7 |
| 20260510054326 | 68 | 30 | 0.0 | 0.0 | 0.00 | 0.00 | 0.00 | 43 | 1014.8 |
| 20260510053821 | 68 | 19 | 1.0 | 1.0 | 0.00 | 0.00 | 0.00 | 43 | 1015.1 |
| 20260510053317 | 68 | 359 | 0.0 | 0.0 | 0.00 | 0.00 | 0.00 | 42 | 1015.2 |
| 20260510052814 | 68 | 7 | 1.0 | 1.0 | 0.00 | 0.00 | 0.00 | 41 | 1015.1 |
| 20260510052309 | 68 | 22 | 1.0 | 1.0 | 0.00 | 0.00 | 0.00 | 41 | 1014.7 |
| 20260510051805 | 68 | 5 | 0.0 | 1.0 | 0.00 | 0.00 | 0.00 | 41 | 1014.6 |
| 20260510051302 | 68 | 69 | 2.0 | 4.0 | 0.00 | 0.00 | 0.00 | 41 | 1014.9 |
| 20260510050800 | 69 | 33 | 1.0 | 2.0 | 0.00 | 0.00 | 0.00 | 41 | 1014.7 |
| 20260510050256 | 69 | 350 | 0.0 | 0.0 | 0.00 | 0.00 | 0.00 | 41 | 1014.4 |
| 20260510045753 | 69 | 357 | 1.0 | 1.0 | 0.00 | 0.01 | 0.01 | 41 | 1014.0 |
| 20260510045249 | 69 | 24 | 1.0 | 1.0 | 0.00 | 0.01 | 0.01 | 42 | 1013.7 |
| 20260510044747 | 69 | 2 | 2.0 | 2.0 | 0.00 | 0.01 | 0.01 | 42 | 1013.6 |
| 20260510044244 | 69 | 343 | 0.0 | 0.0 | 0.00 | 0.01 | 0.01 | 43 | 1013.4 |
| 20260510043740 | 69 | 45 | 0.0 | 1.0 | 0.00 | 0.01 | 0.01 | 44 | 1013.3 |
| 20260510043237 | 69 | 57 | 1.0 | 1.0 | 0.00 | 0.01 | 0.01 | 45 | 1013.0 |
| 20260510042734 | 69 | 7 | 0.0 | 1.0 | 0.00 | 0.01 | 0.01 | 45 | 1012.8 |
| 20260510042229 | 69 | 342 | 2.0 | 3.0 | 0.00 | 0.01 | 0.01 | 45 | 1012.7 |
| 20260510041726 | 69 | 343 | 0.0 | 0.0 | 0.00 | 0.01 | 0.01 | 45 | 1012.7 |
| 20260510041224 | 69 | 33 | 0.0 | 2.0 | 0.00 | 0.01 | 0.01 | 46 | 1012.8 |
| 20260510040720 | 69 | 7 | 0.0 | 1.0 | 0.00 | 0.01 | 0.01 | 45 | 1012.4 |
| 20260510040217 | 69 | 10 | 0.0 | 0.0 | 0.00 | 0.01 | 0.01 | 47 | 1012.4 |
| 20260510035713 | 69 | 8 | 0.0 | 0.0 | 0.00 | 0.01 | 0.01 | 47 | 1012.3 |
| 20260510035209 | 69 | 16 | 0.0 | 0.0 | 0.00 | 0.01 | 0.01 | 48 | 1012.5 |
| 20260510034705 | 68 | 13 | 0.0 | 0.0 | 0.00 | 0.01 | 0.01 | 50 | 1012.2 |
| 20260510034203 | 67 | 6 | 0.0 | 0.0 | 0.00 | 0.01 | 0.01 | 53 | 1012.4 |
| 20260510033658 | 67 | 317 | 0.0 | 0.0 | 0.00 | 0.01 | 0.01 | 54 | 1012.3 |
| 20260510033157 | 67 | 317 | 0.0 | 0.0 | 0.00 | 0.01 | 0.01 | 53 | 1012.3 |
| 20260510032652 | 67 | 317 | 0.0 | 0.0 | 0.00 | 0.01 | 0.01 | 53 | 1012.2 |
| 20260510032148 | 68 | 318 | 0.0 | 0.0 | 0.00 | 0.01 | 0.01 | 52 | 1012.4 |
| 20260510031643 | 68 | 317 | 0.0 | 0.0 | 0.00 | 0.01 | 0.01 | 52 | 1012.4 |
| 20260510031141 | 68 | 317 | 0.0 | 0.0 | 0.00 | 0.01 | 0.01 | 51 | 1012.3 |
| 20260510030640 | 68 | 317 | 0.0 | 0.0 | 0.00 | 0.01 | 0.01 | 52 | 1012.2 |
| 20260510030138 | 69 | 321 | 0.0 | 0.0 | 0.00 | 0.01 | 0.01 | 51 | 1012.2 |
| 20260510025635 | 69 | 316 | 1.0 | 1.0 | 0.00 | 0.01 | 0.01 | 51 | 1012.0 |
| 20260510025132 | 69 | 6 | 0.0 | 0.0 | 0.00 | 0.01 | 0.01 | 49 | 1012.1 |
| 20260510024629 | 69 | 8 | 0.0 | 0.0 | 0.00 | 0.01 | 0.01 | 49 | 1012.2 |
| 20260510024125 | 69 | 323 | 0.0 | 1.0 | 0.00 | 0.01 | 0.01 | 49 | 1012.3 |
| 20260510023622 | 69 | 327 | 0.0 | 0.0 | 0.00 | 0.01 | 0.01 | 48 | 1012.2 |
| 20260510023119 | 70 | 336 | 0.0 | 0.0 | 0.00 | 0.01 | 0.01 | 48 | 1011.5 |
| 20260510022619 | 70 | 336 | 0.0 | 0.0 | 0.00 | 0.01 | 0.01 | 46 | 1011.3 |
| 20260510022114 | 70 | 343 | 0.0 | 0.0 | 0.00 | 0.01 | 0.01 | 46 | 1011.2 |
| 20260510021610 | 71 | 328 | 0.0 | 0.0 | 0.00 | 0.01 | 0.01 | 45 | 1011.1 |
| 20260510021108 | 71 | 348 | 0.0 | 0.0 | 0.00 | 0.01 | 0.01 | 45 | 1011.0 |
| 20260510020607 | 70 | 333 | 1.0 | 1.0 | 0.00 | 0.01 | 0.01 | 45 | 1011.0 |
| 20260510015559 | 71 | 345 | 0.0 | 0.0 | 0.00 | 0.01 | 0.01 | 44 | 1010.9 |
| 20260510015055 | 71 | 353 | 1.0 | 1.0 | 0.00 | 0.01 | 0.01 | 43 | 1010.8 |
| 20260510014552 | 72 | 336 | 0.0 | 1.0 | 0.00 | 0.01 | 0.01 | 43 | 1010.6 |
| 20260510014049 | 72 | 11 | 2.0 | 2.0 | 0.00 | 0.01 | 0.01 | 42 | 1010.6 |
| 20260510013543 | 72 | 339 | 0.0 | 1.0 | 0.00 | 0.01 | 0.01 | 43 | 1010.6 |
| 20260510013040 | 72 | 38 | 2.0 | 3.0 | 0.00 | 0.01 | 0.01 | 42 | 1010.7 |
| 20260510012533 | 72 | 336 | 4.0 | 4.0 | 0.00 | 0.01 | 0.01 | 42 | 1010.3 |
| 20260510012031 | 72 | 338 | 1.0 | 1.0 | 0.00 | 0.01 | 0.01 | 43 | 1010.3 |
| 20260510011530 | 73 | 343 | 0.0 | 0.0 | 0.00 | 0.01 | 0.01 | 43 | 1010.3 |
| 20260510011026 | 73 | 332 | 1.0 | 1.0 | 0.00 | 0.01 | 0.01 | 42 | 1010.3 |
| 20260510010523 | 73 | 339 | 1.0 | 1.0 | 0.00 | 0.01 | 0.01 | 42 | 1010.2 |
| 20260510010020 | 73 | 338 | 1.0 | 1.0 | 0.00 | 0.01 | 0.01 | 41 | 1010.2 |
| 20260510005515 | 74 | 304 | 1.0 | 1.0 | 0.00 | 0.01 | 0.01 | 41 | 1009.8 |
| 20260510005013 | 74 | 342 | 0.0 | 0.0 | 0.00 | 0.01 | 0.01 | 41 | 1009.7 |
| 20260510004511 | 74 | 344 | 0.0 | 0.0 | 0.00 | 0.01 | 0.01 | 40 | 1009.6 |
| 20260510004008 | 75 | 338 | 0.0 | 0.0 | 0.00 | 0.01 | 0.01 | 40 | 1009.7 |
| 20260510003505 | 75 | 325 | 1.0 | 2.0 | 0.00 | 0.01 | 0.01 | 39 | 1009.6 |
| 20260510003000 | 75 | 356 | 0.0 | 1.0 | 0.00 | 0.01 | 0.01 | 39 | 1009.3 |
| 20260510002456 | 76 | 327 | 0.0 | 1.0 | 0.00 | 0.01 | 0.01 | 39 | 1009.3 |
| 20260510001953 | 76 | 342 | 1.0 | 1.0 | 0.00 | 0.01 | 0.01 | 38 | 1009.4 |
| 20260510001450 | 77 | 347 | 1.0 | 2.0 | 0.00 | 0.01 | 0.01 | 38 | 1009.4 |
| 20260510000948 | 77 | 347 | 3.0 | 4.0 | 0.00 | 0.01 | 0.01 | 37 | 1009.2 |
| 20260510000444 | 77 | 7 | 1.0 | 2.0 | 0.00 | 0.01 | 0.01 | 37 | 1009.3 |
| 20260509235940 | 77 | 341 | 3.0 | 4.0 | 0.00 | 0.01 | 0.01 | 36 | 1009.2 |
| 20260509235437 | 77 | 295 | 1.0 | 2.0 | 0.00 | 0.01 | 0.01 | 36 | 1009.2 |
| 20260509234933 | 78 | 298 | 3.0 | 4.0 | 0.00 | 0.01 | 0.01 | 35 | 1009.0 |
| 20260509234430 | 78 | 347 | 1.0 | 2.0 | 0.00 | 0.01 | 0.01 | 34 | 1009.1 |
| 20260509233928 | 79 | 313 | 3.0 | 3.0 | 0.00 | 0.01 | 0.01 | 33 | 1008.9 |
| 20260509233426 | 79 | 336 | 1.0 | 1.0 | 0.00 | 0.01 | 0.01 | 32 | 1008.9 |
| 20260509232921 | 79 | 316 | 1.0 | 1.0 | 0.00 | 0.01 | 0.01 | 31 | 1008.4 |
| 20260509232420 | 79 | 333 | 1.0 | 2.0 | 0.00 | 0.01 | 0.01 | 30 | 1008.4 |
| 20260509231915 | 79 | 346 | 2.0 | 3.0 | 0.00 | 0.01 | 0.01 | 32 | 1008.6 |
| 20260509231412 | 80 | 328 | 1.0 | 1.0 | 0.00 | 0.01 | 0.01 | 31 | 1008.5 |
| 20260509230910 | 80 | 349 | 1.0 | 3.0 | 0.00 | 0.01 | 0.01 | 30 | 1008.5 |
| 20260509230407 | 80 | 328 | 2.0 | 6.0 | 0.00 | 0.01 | 0.01 | 31 | 1008.5 |
| 20260509225902 | 80 | 336 | 0.0 | 1.0 | 0.00 | 0.01 | 0.01 | 32 | 1008.4 |
| 20260509225359 | 80 | 325 | 0.0 | 1.0 | 0.00 | 0.01 | 0.01 | 30 | 1008.3 |
| 20260509224855 | 80 | 341 | 0.0 | 1.0 | 0.00 | 0.01 | 0.01 | 31 | 1008.4 |
| 20260509224351 | 81 | 299 | 1.0 | 2.0 | 0.00 | 0.01 | 0.01 | 31 | 1008.2 |
| 20260509223848 | 81 | 339 | 1.0 | 1.0 | 0.00 | 0.01 | 0.01 | 31 | 1008.2 |
| 20260509223345 | 82 | 311 | 3.0 | 4.0 | 0.00 | 0.01 | 0.01 | 29 | 1008.2 |
| 20260509222843 | 82 | 325 | 0.0 | 1.0 | 0.00 | 0.01 | 0.01 | 30 | 1008.0 |
| 20260509222343 | 82 | 13 | 1.0 | 1.0 | 0.00 | 0.01 | 0.01 | 30 | 1008.1 |
| 20260509221838 | 82 | 289 | 2.0 | 2.0 | 0.00 | 0.01 | 0.01 | 30 | 1008.0 |
| 20260509221337 | 82 | 275 | 2.0 | 2.0 | 0.00 | 0.01 | 0.01 | 30 | 1008.1 |
| 20260509220836 | 82 | 277 | 1.0 | 2.0 | 0.00 | 0.01 | 0.01 | 29 | 1007.9 |